Location: Cheadle
(51.0146°N, 113.5417°W)
Time: 04:00:42
(UTC+00:00)

RS-44 - Pass Details

Date: 09 December 2023
Orbit: 1175 x 1510 km, 82.5° (Epoch: 22 February)

Event Time Altitude Azimuth Distance (km) Brightness Sun altitude
Rises 03:14:48 0° 352° (N) 4,165 ? -34.4°
Reaches altitude 10° 03:18:14 10° 6° (N) 3,159 ? -35.0°
Enters shadow 03:18:41 11° 8° (N) 3,041 ? -35.1°
